Volver al catálogo

EKRAN 4

ActivoComunicacionesGEO
NORAD 11561·PAYLOAD·🇷🇺 Russia

Lanzado Oct 3, 1979 desde Baikonur Cosmodrome

Loading…

TLE

ActualizadoSource: Space-Track

Época: Sep 14, 2026, 14:13 UTC

1 11561U 79087A   26257.59286775 -.00000227  00000-0  00000-0 0  9998
2 11561   5.3777 283.8696 0010571 228.9114 143.5562  1.00233462 48276

Sigue EKRAN 4 en tiempo real con AllMySat

Download on the App Store